Location: Newark
(35.2672°N, 80.7344°W)
Time: 15:04:05
(UTC+00:00)

Tiros 1 - Pass Details

Date: 29 January 2020
Orbit: 631 x 664 km, 48.4° (Epoch: 26 February)

Event Time Altitude Azimuth Distance (km) Brightness Sun altitude
Rises 23:54:51 0° 298° (WNW) 2,976 11.4 -14.1°
Reaches altitude 10° 23:57:22 10° 289° (WNW) 2,066 10.7 -14.6°
Maximum altitude 00:01:37 33° 226° (SW) 1,108 8.9 -15.5°
Drops below altitude 10° 00:05:53 10° 163° (SSE) 2,068 9.7 -16.3°
Sets 00:08:24 0° 153° (SSE) 2,978 10.4 -16.8°
